PVG77 EPWR-KORD

Flight info

Callsign PVG77
Flight time N/A
Altitude 34000
Route ULGIL Z348 EKSEK T738 LASIS DCT HLZ DCT LONAM DCT NATEB/N0460F240 Y96 TLA/N0485F340 DCT MIMKU DCT PIKIL/M084F350 DCT 56N020W 55N030W 53N040W 51N050W DCT ALLRY/N0491F360 N484E ANATI DCT KAPUX DCT HOCKE DCT FNT WYNDE3
Aircraft B77W/H-SDE1E2E3FGHIJ2J3J4J5M1RWXY/LB1D1

Departure

Time 2026-05-08 17:03
Airport Copernicus Wrocław Airport (EPWR)

Arrival

Time N/A
Airport Chicago O'Hare International Airport (KORD)
Time Latitude Longitude Altitude Speed Heading
2026-05-08 16:30 51.10998 16.87501 406 ft 0 kts 26°
2026-05-08 16:52 51.10989 16.87494 406 ft 2 kts 18°
2026-05-08 16:53 51.10960 16.87494 406 ft 2 kts 342°
2026-05-08 16:53 51.10946 16.87503 406 ft 2 kts 326°
2026-05-08 16:53 51.10935 16.87518 407 ft 2 kts 310°
2026-05-08 16:54 51.10926 16.87538 407 ft 2 kts 295°
2026-05-08 16:54 51.10921 16.87560 407 ft 2 kts 294°
2026-05-08 16:54 51.10917 16.87573 407 ft 0 kts 295°
2026-05-08 16:54 51.10917 16.87574 407 ft 0 kts 295°
2026-05-08 16:56 51.10917 16.87573 407 ft 0 kts 295°
2026-05-08 16:57 51.10927 16.87539 407 ft 5 kts 295°
2026-05-08 16:57 51.10935 16.87489 407 ft 2 kts 245°
2026-05-08 16:57 51.10929 16.87476 407 ft 0 kts 234°
2026-05-08 16:57 51.10924 16.87465 407 ft 3 kts 239°
2026-05-08 16:58 51.10913 16.87437 408 ft 1 kts 230°
2026-05-08 16:58 51.10902 16.87419 409 ft 4 kts 229°
2026-05-08 16:58 51.10863 16.87365 409 ft 7 kts 213°
2026-05-08 16:58 51.10819 16.87327 409 ft 6 kts 207°
2026-05-08 16:59 51.10782 16.87297 410 ft 6 kts 206°
2026-05-08 16:59 51.10740 16.87263 410 ft 6 kts 214°
2026-05-08 16:59 51.10718 16.87210 411 ft 5 kts 256°
2026-05-08 16:59 51.10722 16.87129 411 ft 9 kts 286°
2026-05-08 17:00 51.10751 16.87016 410 ft 12 kts 293°
2026-05-08 17:00 51.10791 16.86881 409 ft 13 kts 296°
2026-05-08 17:00 51.10821 16.86745 409 ft 12 kts 278°
2026-05-08 17:00 51.10838 16.86634 408 ft 8 kts 311°
2026-05-08 17:01 51.10860 16.86646 408 ft 4 kts 106°
2026-05-08 17:01 51.10852 16.86673 408 ft 0 kts 115°
2026-05-08 17:02 51.10848 16.86689 408 ft 9 kts 115°
2026-05-08 17:02 51.10717 16.87129 411 ft 84 kts 117°
2026-05-08 17:02 51.10340 16.88362 406 ft 162 kts 117°
2026-05-08 17:02 51.09755 16.90253 535 ft 215 kts 112°
2026-05-08 17:03 51.09186 16.92593 1221 ft 236 kts 114°
2026-05-08 17:03 51.08443 16.94701 2629 ft 215 kts 123°
2026-05-08 17:03 51.07386 16.96408 3145 ft 224 kts 146°
2026-05-08 17:03 51.05953 16.97325 3681 ft 228 kts 170°
2026-05-08 17:04 51.04330 16.97165 3990 ft 243 kts 201°
2026-05-08 17:04 51.02943 16.95560 4221 ft 260 kts 237°
2026-05-08 17:04 51.02379 16.92823 4717 ft 266 kts 273°
2026-05-08 17:04 51.02804 16.90034 5473 ft 265 kts 291°
2026-05-08 17:05 51.03468 16.87329 6307 ft 264 kts 291°
2026-05-08 17:05 51.04141 16.84632 7029 ft 268 kts 291°
2026-05-08 17:05 51.04824 16.81897 7777 ft 270 kts 291°
2026-05-08 17:05 51.05512 16.79139 8462 ft 273 kts 292°
2026-05-08 17:06 51.06216 16.76314 9163 ft 276 kts 292°
2026-05-08 17:06 51.06919 16.73490 9858 ft 278 kts 292°
2026-05-08 17:06 51.07629 16.70633 10496 ft 283 kts 292°
2026-05-08 17:06 51.08373 16.67638 10879 ft 299 kts 291°
2026-05-08 17:07 51.09145 16.64524 11248 ft 314 kts 291°
2026-05-08 17:07 51.09966 16.61207 11640 ft 329 kts 291°
2026-05-08 17:07 51.10816 16.57767 12053 ft 343 kts 291°
2026-05-08 17:07 51.11704 16.54170 12498 ft 357 kts 291°
2026-05-08 17:08 51.12629 16.50411 12932 ft 370 kts 291°
2026-05-08 17:08 51.13573 16.46572 13534 ft 378 kts 291°
2026-05-08 17:08 51.14530 16.42679 14294 ft 382 kts 291°
2026-05-08 17:08 51.15488 16.38772 15039 ft 386 kts 291°
2026-05-08 17:09 51.16472 16.34753 15759 ft 390 kts 290°
2026-05-08 17:09 51.17453 16.30736 16473 ft 394 kts 290°
2026-05-08 17:09 51.18453 16.26636 17185 ft 398 kts 290°
2026-05-08 17:09 51.19451 16.22536 17842 ft 402 kts 290°
2026-05-08 17:10 51.20457 16.18397 18532 ft 405 kts 290°
2026-05-08 17:10 51.21482 16.14169 19182 ft 410 kts 290°
2026-05-08 17:10 51.22499 16.09970 19837 ft 413 kts 290°
2026-05-08 17:10 51.23534 16.05687 20485 ft 417 kts 290°
2026-05-08 17:11 51.24573 16.01380 21110 ft 421 kts 290°
2026-05-08 17:11 51.25626 15.97005 21718 ft 424 kts 290°
2026-05-08 17:11 51.26680 15.92622 22314 ft 428 kts 290°
2026-05-08 17:11 51.27748 15.88169 22912 ft 431 kts 290°
2026-05-08 17:12 51.28819 15.83694 23472 ft 435 kts 290°
2026-05-08 17:12 51.29893 15.79196 24014 ft 438 kts 290°
2026-05-08 17:12 51.30969 15.74684 24566 ft 441 kts 290°
2026-05-08 17:12 51.32058 15.70107 25115 ft 444 kts 290°
2026-05-08 17:13 51.33147 15.65520 25641 ft 446 kts 290°
2026-05-08 17:13 51.34255 15.60842 26143 ft 450 kts 290°
2026-05-08 17:13 51.35354 15.56193 26638 ft 452 kts 290°
2026-05-08 17:13 51.36474 15.51446 27123 ft 455 kts 290°
2026-05-08 17:14 51.37592 15.46697 27573 ft 459 kts 290°
2026-05-08 17:14 51.38702 15.41972 28024 ft 462 kts 290°
2026-05-08 17:14 51.39840 15.37114 28477 ft 464 kts 290°
2026-05-08 17:14 51.40981 15.32237 28934 ft 467 kts 289°
2026-05-08 17:15 51.42120 15.27355 29412 ft 469 kts 289°
2026-05-08 17:15 51.43265 15.22440 29984 ft 468 kts 289°
2026-05-08 17:15 51.44392 15.17588 30640 ft 465 kts 289°
2026-05-08 17:15 51.45511 15.12766 31262 ft 462 kts 289°
2026-05-08 17:16 51.46617 15.07985 31789 ft 460 kts 289°
2026-05-08 17:16 51.47713 15.03238 32238 ft 459 kts 289°
2026-05-08 17:16 51.48817 14.98447 32627 ft 459 kts 289°
2026-05-08 17:16 51.49921 14.93646 33013 ft 459 kts 289°
2026-05-08 17:17 51.51022 14.88847 33439 ft 458 kts 289°
2026-05-08 17:17 51.52115 14.84074 33827 ft 456 kts 289°
2026-05-08 17:17 51.53208 14.79290 34120 ft 457 kts 289°
2026-05-08 17:17 51.54295 14.74518 34145 ft 458 kts 289°
2026-05-08 17:18 51.56470 14.64948 34150 ft 456 kts 289°
2026-05-08 17:18 51.58627 14.55411 34150 ft 458 kts 289°
2026-05-08 17:19 51.60782 14.45839 34151 ft 457 kts 289°